#timestamp,LO_Frequency,Hit,StdDev 
1606327215.2,286046999.7,N
1606327235.0,286047003.5,N
1606327235.9,286047003.5,N
1606327255.8,286047004.0,Y
1606327275.6,286047002.7,P
1606327295.5,286047001.5,P
1606327315.3,286047001.5,N
1606327335.1,286047001.9,Y
1606327355.9,286047000.9,P
1606327375.7,286046996.6,P
1606327395.5,286046999.5,N
1606327415.4,286047001.1,N
1606327435.2,286046998.2,N
1606327455.1,286047000.7,N
1606327456.0,286047000.7,N
1606327475.8,286047000.7,N
1606327495.6,286047001.2,N
1606327515.5,286047000.3,N
1606327535.3,286047000.1,N
1606327555.1,286046999.9,N
1606327575.9,286047000.8,N
1606327595.7,286046999.0,N
1606327615.6,286046998.6,N
1606327635.4,286046997.1,N
1606327655.2,286046997.7,N
1606327675.1,286047001.2,N
1606327676.0,286047001.2,N
1606327695.8,286046998.7,N
1606327715.6,286046997.7,N
1606327735.5,286046997.1,N
1606327755.3,286046997.5,N
1606327775.2,286046995.3,N
1606327795.9,286046997.1,N
1606327815.7,286046997.2,N
1606327835.6,286046996.8,N
1606327855.4,286046998.9,N
1606327875.2,286046998.9,N
1606327895.1,286047000.9,N
1606327896.0,286047000.9,N
1606327915.8,286046998.2,N
1606327935.7,286046998.4,N
1606327955.5,286046996.6,N
1606327975.3,286046999.1,N
1606327995.2,286046999.2,N
1606328015.9,286046997.9,N
1606328035.7,286046995.6,N
1606328055.6,286046996.2,N
1606328075.4,286046995.8,N
1606328095.3,286046994.9,Y
1606328115.1,286046997.7,P
1606328116.0,286046997.7,P
1606328135.8,286046995.0,P
1606328155.7,286046996.6,N
1606328175.5,286046996.5,Y
1606328195.3,286047001.5,P
1606328215.2,286047007.3,P
1606328235.0,286047004.9,N
1606328235.9,286047004.9,N
1606328255.8,286047007.5,N
1606328275.6,286047004.5,N
1606328295.4,286047006.7,N
1606328315.3,286047006.9,N
1606328335.1,286047005.7,N
1606328355.8,286047005.9,N
1606328375.7,286047001.9,N
1606328395.5,286047001.9,N
1606328415.4,286047000.8,N
1606328435.2,286047002.1,N
1606328455.0,286047011.9,Y
1606328455.9,286047001.9,P
1606328475.8,286046997.1,N
1606328495.6,286046997.1,N
1606328515.4,286046998.1,N
1606328535.3,286047000.5,N
1606328555.1,286046999.1,N
1606328575.9,286046999.0,N
1606328595.7,286046999.0,N
1606328615.5,286046999.2,N
1606328635.4,286046997.1,N
1606328655.2,286046995.8,N
1606328675.0,286046995.4,N
1606328676.0,286046995.4,N
1606328695.8,286046993.5,N
1606328715.6,286046993.8,N
1606328735.5,286046993.4,N
1606328755.3,286046996.4,N
1606328775.1,286046996.3,N
1606328795.9,286046991.8,Y
1606328815.7,286046994.0,P
1606328835.6,286046993.4,P
1606328855.4,286046996.4,N
1606328875.2,286046994.2,Y
1606328895.1,286046998.7,P
1606328896.0,286046998.7,N
1606328915.8,286046998.9,N
1606328935.6,286046999.5,N
1606328955.5,286046999.5,N
1606328975.3,286046997.7,N
1606328995.2,286046996.7,N
1606329015.9,286046995.0,Y
1606329035.7,286046998.9,P
1606329055.6,286046999.0,N
1606329075.4,286046999.2,N
1606329095.2,286046999.3,N
1606329115.1,286046997.0,Y
1606329116.0,286046997.0,P
1606329135.8,286047001.0,N
1606329155.7,286047002.8,N
1606329175.5,286047002.0,N
1606329195.3,286047001.7,N
1606329215.2,286047003.4,N
1606329235.0,286047003.8,N
1606329235.9,286047003.8,N
1606329255.7,286047005.6,N
1606329275.6,286047002.9,N
1606329295.4,286047003.1,N
1606329315.3,286047003.1,N
1606329335.1,286047003.8,N
1606329336.0,286047003.8,N
1606329355.8,286047005.4,N
1606329375.7,286047004.7,N
1606329395.5,286047004.9,N
1606329415.3,286047005.4,N
1606329435.2,286047006.8,Y
1606329455.0,286047005.4,P
1606329455.9,286047005.4,P
1606329475.8,286047003.0,N
1606329495.6,286047005.9,Y
1606329515.4,286047001.2,P
1606329535.3,286046998.3,N
1606329555.1,286046996.7,N
1606329575.8,286046997.1,N
1606329595.7,286046998.9,N
1606329615.5,286046998.8,N
1606329635.4,286047000.8,N
1606329655.2,286046998.7,N
1606329675.0,286046999.3,N
1606329675.9,286046999.3,N
1606329695.8,286046998.1,N
1606329715.6,286047000.7,N
1606329735.4,286047000.2,N
1606329755.3,286047001.5,N
1606329775.1,286047001.6,N
1606329795.9,286047004.0,N
1606329815.7,286047004.2,N
1606329835.5,286047002.4,N
1606329855.4,286047001.9,N
1606329875.2,286047001.5,N
1606329895.0,286047001.9,N
1606329895.9,286047001.9,N
1606329915.8,286047004.3,N
1606329935.6,286047001.5,N
1606329955.5,286047002.6,N
1606329975.3,286047001.6,N
1606329995.1,286047002.0,N
1606330015.9,286047001.3,N
1606330035.7,286047004.0,N
1606330055.5,286047001.9,N
1606330075.4,286047001.4,N
1606330095.2,286047004.4,N
1606330115.1,286047001.3,N
1606330116.0,286047001.3,N
1606330135.8,286047004.4,N
1606330155.6,286047003.9,N
1606330175.5,286047005.3,Y
1606330195.3,286047004.2,P
1606330215.1,286047003.5,N
1606330235.9,286047001.4,N
1606330255.7,286047003.5,N
1606330275.6,286047004.4,Y
1606330295.4,286047000.3,P
1606330315.2,286046999.7,N
1606330335.1,286046999.9,N
1606330336.0,286046999.9,N
1606330355.8,286047000.2,N
1606330375.6,286047000.2,N
1606330395.5,286047002.8,N
1606330415.3,286047002.6,N
1606330435.2,286047002.0,N
1606330455.9,286046999.9,N
1606330475.7,286047000.6,N
1606330495.6,286046999.9,N
1606330515.4,286046998.5,N
1606330535.2,286046999.3,N
1606330555.1,286046998.3,N
1606330556.0,286046998.3,N
1606330575.8,286046999.5,N
1606330595.7,286046998.2,N
1606330615.5,286047001.1,N
1606330635.3,286047000.0,N
1606330655.2,286047000.9,N
1606330675.0,286047000.0,N
1606330675.9,286047000.0,N
1606330695.7,286047000.3,N
1606330715.6,286047004.4,Y
1606330735.4,286047002.5,P
1606330755.3,286047000.0,N
1606330775.1,286047000.0,N
1606330795.8,286046999.7,N
